sat.trackr.live / text

‹ back to catalog

STARLINK-34704

NORAD 65746 · 2025-216N

PAYLOAD ACTIVE UNKNOWN

§ Identity

Operator
Country
US
Launch date
2025-09-25
Launch site
AFETR
Launch vehicle
Mass (kg)
RCS (m²)

Purposes: comms

External: N2YO · Heavens-Above · Gunter

§ Orbital elements

Epoch: 2026-05-24T19:06:02.767104Z

Period
94.10 min
Inclination
53.1626°
Eccentricity
0.0001569
Mean motion
15.30209174 rev/d
Perigee alt
474.1 km
Apogee alt
476.3 km
Semi-major
6,853.3 km
B*
4.7530e-4
RAAN
339.5352°
Arg perigee
91.8501°
Mean anomaly
268.2680°
Rev number
3,818

§ Raw data

STARLINK-347041 65746U 25216N   26144.79586536  .00013748  00000+0  47530-3 0  99942 65746  53.1626 339.5352 0001569  91.8501 268.2680 15.30209174 38182

JSON: /api/v1/satellites/65746 · /tle

For live sub-satellite position, see the globe view (requires WebGL).

§ Visibility from observer

Set your observer location to see the next 7 days of passes ≥ 10°. The values pass through the URL so the page stays shareable.

No JS? Fill the form by hand. The geolocation button needs JavaScript.